Temp
26 25 23 22 22 24 27 27 27 24 22 22 22 21 22 21 22 19 19 19 19 19 19 18 18 18 19 19 18 18 18 18 19 19 19 19 19 19 19 19 19 19 19 20 19 19 19 19 19
26 26 23 25 25 25 25 28 27 27 24 22 23 23 22 21 20 19 19 19 19 19 19 19 19 19 19 18 18 19 19 19 19 19 19 19 19 19 19 19 19 19 19 19 19 19 19 19 19
27 26 26 24 26 26 26 28 29 28 23 24 24 24 22 20 20 19 19 19 19 20 20 19 19 19 19 19 19 19 19 19 19 19 19 19 19 20 20 20 19 19 19 19 19 19 19 19 19
29 27 27 28 27 29 29 29 29 28 27 26 24 23 21 21 20 20 19 19 19 20 20 19 19 19 19 19 19 20 20 19 19 19 19 19 19 20 20 20 19 19 19 19 20 19 19 19 19
28 26 23 27 29 30 30 31 29 28 27 25 23 22 21 20 20 20 20 20 20 20 19 19 19 19 19 19 19 19 20 19 19 19 19 19 20 19 19 19 19 19 19 19 19 19 19 19 19
25 25 23 27 28 29 31 30 29 27 26 24 22 22 21 21 21 20 20 20 20 20 20 20 20 20 20 19 19 20 19 19 19 19 19 19 19 19 19 19 19 19 19 19 19 19 19 19 19
22 22 21 28 28 28 29 30 28 28 26 26 23 21 21 21 21 20 20 20 20 20 20 20 20 20 20 19 20 20 20 19 19 19 19 19 19 19 19 19 19 19 19 19 19 19 19 19 19
26 23 24 24 28 28 30 30 29 28 26 25 25 23 22 22 21 20 20 20 20 20 20 20 20 20 20 20 20 19 19 19 19 19 20 19 19 20 20 19 19 19 19 19 19 19 19 19 19
28 22 25 22 24 27 30 30 30 28 27 26 26 25 24 22 21 21 20 20 20 20 20 19 19 19 19 20 20 20 20 19 19 19 19 19 19 19 20 19 18 19 18 18 19 18 18 18 18
27 25 29 27 29 26 27 27 25 28 28 26 25 25 24 23 23 22 21 20 20 20 19 19 19 19 19 20 20 20 20 20 20 20 19 19 19 19 19 19 18 19 19 18 19 18 18 19 18
29 29 31 31 30 27 27 26 29 26 27 26 25 25 25 24 23 22 22 21 22 21 20 19 20 19 19 19 19 20 20 20 20 19 19 18 18 18 18 18 18 19 18 18 18 19 19 18 18
33 33 32 30 30 28 26 24 27 29 26 26 25 25 25 24 23 23 24 22 22 21 20 20 20 19 19 19 20 20 20 20 20 19 20 18 19 19 19 18 18 18 18 18 18 18 18 18 18
33 33 32 31 30 27 25 24 25 26 27 26 25 25 25 25 25 23 23 22 22 22 21 21 20 20 19 19 19 18 20 19 20 19 19 19 19 19 19 19 19 19 19 19 19 19 19 19 18
35 35 33 33 31 30 28 25 27 26 27 26 25 25 25 25 24 24 23 23 22 22 21 21 21 21 20 20 20 20 20 19 20 19 19 19 19 19 19 19 19 19 19 18 18 18 18 18 18
35 32 33 32 31 30 29 27 27 27 27 26 25 25 25 25 24 24 24 23 22 22 21 21 21 21 20 20 20 20 19 20 20 19 20 20 20 20 19 19 19 18 18 18 18 18 18 18 18
33 31 28 30 30 30 28 25 27 27 27 26 26 26 25 25 25 24 24 23 22 22 22 22 21 21 21 20 20 20 20 20 20 19 20 20 20 19 18 18 19 18 18 18 18 18 18 17 17
31 28 28 29 30 30 28 26 28 28 27 26 26 26 26 26 25 24 24 23 23 22 22 22 22 21 21 20 20 19 20 20 19 19 19 20 20 19 18 18 18 18 18 18 18 18 17 17 17
28 30 29 29 29 30 28 27 28 28 28 27 27 27 26 25 25 24 24 23 23 22 22 22 22 21 21 20 20 19 19 19 19 19 19 19 19 19 18 18 18 18 17 18 17 17 17 17 17
31 31 30 31 31 29 28 28 28 29 29 29 28 27 26 26 25 24 24 23 23 23 22 22 22 21 20 20 19 20 20 19 19 19 19 19 18 19 18 17 18 17 17 16 16 16 16 16 17
32 31 29 30 31 29 28 28 29 25 27 29 28 28 27 27 24 24 24 23 23 22 22 22 21 21 20 20 21 20 20 20 20 19 19 18 18 18 17 17 16 17 17 17 17 17 16 16 16
31 31 30 30 31 31 28 26 22 26 28 29 29 28 28 27 25 24 24 23 22 22 22 22 21 21 22 21 21 19 19 19 19 19 19 18 18 18 18 17 17 16 16 16 16 16 15 16 16
29 34 34 33 30 26 28 23 22 23 25 28 29 28 28 26 26 25 24 24 23 23 22 22 22 21 21 21 20 19 19 19 19 19 19 18 18 18 17 16 16 16 16 16 15 15 15 15 15
31 33 33 32 30 29 29 25 24 23 24 28 28 28 29 27 26 25 25 24 24 23 23 22 22 21 21 20 20 20 20 19 19 19 19 19 18 17 17 16 16 16 16 16 15 15 15 14 14
34 33 32 30 27 25 27 26 22 24 26 29 30 29 29 27 26 26 25 25 24 24 23 22 21 21 21 21 22 21 20 20 19 19 19 18 17 17 17 17 16 16 16 16 15 15 15 14 14
33 29 25 25 25 25 27 28 24 28 30 29 26 30 30 28 26 26 25 25 24 23 23 23 21 21 22 22 21 21 20 20 19 19 18 17 17 16 16 16 16 16 15 15 14 14 14 14 14
29 27 23 25 25 27 30 28 28 31 30 30 31 32 31 29 27 26 26 25 25 24 23 23 22 21 22 22 21 20 20 19 17 17 17 17 17 16 16 16 15 15 15 14 14 14 14 14 13
29 27 29 27 29 26 28 30 30 29 29 30 29 29 30 30 29 27 27 26 25 24 23 24 23 22 23 21 21 20 19 19 17 17 17 17 17 16 15 15 15 15 15 14 14 14 14 14 13
29 30 28 24 26 26 27 28 27 27 27 28 26 27 30 30 28 29 27 26 26 24 24 24 23 23 23 22 20 20 19 19 18 18 18 18 17 16 16 16 15 15 15 15 14 14 14 14 14
30 28 28 26 24 24 25 26 28 27 27 27 28 29 30 28 29 27 27 27 26 24 24 23 23 22 22 21 20 19 18 18 19 18 18 17 16 15 15 15 15 15 14 14 14 14 14 14 14
30 29 26 23 26 25 24 26 31 28 28 29 30 31 32 31 30 29 27 26 25 24 23 23 23 22 21 21 20 18 18 18 18 17 17 16 15 15 15 15 15 14 14 14 14 14 14 14 13
Height
1495 1496 1495 1498 1508 1501 1505 1503 1494 1512 1519 1516 1518 1515 1517 1518 1522 1546 1544 1546 1549 1550 1552 1554 1556 1558 1559 1560 1563 1565 1567 1569 1569 1571 1572 1574 1577 1578 1580 1580 1581 1582 1583 1583 1584 1585 1584 1585 1585
1492 1493 1495 1497 1505 1512 1514 1495 1498 1501 1508 1516 1518 1517 1518 1529 1527 1537 1544 1548 1549 1551 1554 1556 1559 1559 1561 1562 1565 1567 1570 1571 1572 1573 1576 1578 1579 1580 1581 1581 1582 1583 1584 1584 1585 1586 1585 1585 1585
1488 1490 1495 1496 1497 1510 1513 1496 1497 1504 1511 1514 1516 1518 1526 1533 1538 1539 1546 1548 1549 1553 1555 1557 1560 1560 1562 1565 1567 1569 1571 1573 1574 1576 1578 1579 1581 1581 1583 1583 1584 1584 1584 1585 1585 1586 1586 1586 1586
1489 1490 1490 1492 1501 1492 1496 1496 1499 1507 1512 1515 1516 1524 1532 1537 1538 1543 1546 1549 1552 1554 1557 1559 1561 1562 1564 1566 1569 1571 1572 1575 1577 1578 1580 1581 1583 1584 1585 1586 1586 1586 1585 1585 1585 1586 1587 1586 1587
1491 1494 1501 1495 1493 1489 1489 1492 1500 1509 1514 1519 1521 1532 1536 1540 1542 1545 1549 1551 1553 1555 1558 1560 1562 1564 1565 1568 1570 1572 1574 1577 1579 1581 1582 1584 1584 1585 1586 1586 1587 1587 1586 1585 1586 1587 1587 1587 1587
1496 1502 1514 1506 1499 1491 1491 1496 1504 1512 1519 1525 1527 1530 1540 1545 1545 1548 1551 1553 1555 1556 1559 1561 1564 1565 1567 1569 1571 1573 1576 1578 1581 1583 1584 1584 1584 1585 1586 1586 1586 1587 1587 1586 1586 1587 1587 1587 1586
1511 1510 1524 1499 1501 1498 1498 1497 1505 1514 1521 1525 1529 1533 1542 1545 1546 1549 1552 1554 1557 1559 1561 1563 1565 1566 1568 1571 1572 1575 1577 1580 1582 1584 1585 1585 1585 1584 1584 1585 1586 1587 1588 1587 1586 1587 1587 1587 1586
1507 1516 1519 1512 1509 1506 1497 1497 1503 1512 1521 1527 1528 1537 1540 1543 1548 1552 1554 1556 1558 1561 1562 1563 1565 1567 1569 1571 1574 1576 1578 1581 1583 1585 1585 1585 1583 1583 1583 1585 1587 1586 1587 1586 1585 1586 1586 1586 1585
1501 1513 1525 1528 1516 1507 1497 1501 1507 1510 1519 1524 1526 1532 1539 1543 1547 1551 1556 1558 1560 1563 1564 1565 1567 1568 1570 1572 1574 1577 1579 1581 1584 1586 1586 1585 1584 1584 1586 1584 1586 1586 1586 1586 1584 1586 1585 1586 1586
1500 1503 1494 1500 1501 1498 1499 1504 1509 1512 1520 1527 1531 1537 1542 1545 1548 1551 1554 1558 1560 1563 1565 1566 1568 1569 1571 1573 1576 1577 1579 1582 1584 1586 1587 1586 1585 1584 1585 1585 1587 1587 1587 1585 1585 1584 1583 1585 1585
1492 1496 1488 1491 1500 1502 1502 1507 1510 1513 1520 1522 1528 1536 1542 1545 1548 1550 1554 1556 1560 1562 1564 1566 1568 1570 1571 1573 1576 1577 1579 1581 1583 1586 1586 1587 1586 1586 1586 1586 1587 1587 1586 1584 1584 1584 1582 1583 1584
1484 1480 1482 1494 1496 1504 1505 1507 1508 1510 1524 1524 1531 1537 1541 1546 1548 1550 1554 1558 1560 1562 1563 1567 1569 1570 1573 1573 1575 1577 1579 1580 1582 1584 1586 1587 1587 1588 1587 1587 1587 1586 1585 1584 1584 1582 1582 1582 1581
1478 1480 1485 1493 1498 1503 1507 1512 1514 1518 1523 1527 1534 1540 1543 1546 1550 1552 1555 1558 1561 1563 1565 1568 1570 1571 1573 1574 1575 1576 1577 1579 1580 1583 1584 1586 1586 1587 1586 1585 1585 1585 1584 1584 1582 1580 1580 1580 1579
1476 1478 1483 1488 1493 1500 1504 1515 1515 1522 1525 1530 1536 1541 1544 1546 1550 1553 1554 1557 1562 1564 1565 1567 1569 1571 1572 1574 1574 1576 1577 1579 1580 1581 1583 1584 1585 1585 1584 1584 1583 1583 1582 1582 1580 1579 1578 1577 1577
1474 1482 1484 1487 1491 1498 1501 1519 1522 1524 1527 1532 1537 1541 1544 1546 1549 1552 1554 1556 1560 1564 1564 1566 1569 1571 1571 1572 1573 1575 1576 1577 1579 1579 1580 1581 1582 1581 1581 1581 1581 1581 1579 1578 1577 1577 1576 1575 1574
1476 1481 1502 1491 1492 1500 1498 1528 1521 1524 1529 1532 1536 1538 1541 1544 1546 1550 1552 1555 1558 1561 1564 1566 1568 1568 1569 1571 1572 1573 1575 1576 1577 1578 1579 1579 1579 1578 1578 1578 1577 1577 1576 1575 1574 1574 1573 1572 1571
1479 1504 1501 1503 1489 1493 1498 1520 1515 1521 1525 1528 1531 1534 1537 1541 1544 1547 1550 1553 1556 1559 1562 1564 1565 1566 1567 1568 1570 1570 1572 1573 1574 1575 1575 1575 1576 1575 1575 1575 1574 1574 1573 1573 1572 1571 1570 1568 1568
1496 1494 1496 1499 1495 1493 1501 1511 1511 1517 1521 1523 1526 1530 1534 1537 1540 1543 1547 1550 1553 1557 1560 1562 1563 1564 1566 1567 1568 1568 1569 1570 1571 1572 1573 1574 1574 1573 1572 1573 1572 1571 1571 1570 1568 1567 1567 1565 1564
1471 1479 1492 1492 1487 1494 1502 1507 1508 1513 1517 1521 1523 1524 1528 1532 1536 1540 1544 1547 1550 1554 1557 1559 1561 1563 1564 1565 1566 1567 1567 1568 1569 1569 1570 1571 1570 1569 1569 1569 1569 1569 1568 1567 1566 1565 1563 1562 1562
1466 1479 1485 1477 1481 1487 1498 1507 1505 1512 1518 1514 1519 1521 1524 1528 1532 1537 1541 1544 1547 1550 1554 1556 1559 1560 1562 1563 1565 1565 1566 1566 1567 1567 1568 1568 1567 1568 1567 1567 1567 1567 1566 1566 1564 1562 1561 1560 1559
1466 1474 1479 1480 1479 1482 1496 1516 1515 1504 1499 1508 1509 1516 1522 1523 1528 1534 1538 1542 1545 1548 1551 1554 1556 1558 1560 1562 1562 1563 1564 1564 1565 1564 1564 1565 1566 1566 1566 1565 1564 1564 1563 1563 1562 1560 1560 1558 1557
1478 1455 1457 1468 1481 1521 1487 1539 1520 1511 1504 1502 1503 1509 1514 1520 1525 1529 1536 1541 1542 1546 1549 1552 1554 1556 1558 1559 1559 1560 1561 1561 1562 1562 1562 1563 1563 1563 1563 1562 1561 1561 1561 1560 1559 1558 1557 1556 1554
1463 1453 1458 1463 1478 1483 1488 1510 1502 1507 1509 1498 1500 1504 1509 1512 1517 1522 1530 1538 1541 1544 1547 1550 1552 1554 1555 1556 1557 1557 1557 1558 1558 1559 1559 1561 1560 1560 1561 1560 1560 1559 1558 1557 1556 1555 1554 1554 1553
1446 1454 1461 1464 1479 1514 1488 1499 1516 1501 1489 1483 1483 1497 1499 1505 1510 1516 1522 1530 1535 1539 1543 1547 1550 1552 1553 1554 1555 1555 1554 1555 1555 1556 1557 1557 1558 1558 1558 1558 1557 1557 1555 1554 1554 1553 1553 1551 1550
1447 1469 1510 1518 1516 1518 1477 1489 1491 1471 1470 1474 1480 1484 1491 1496 1501 1507 1513 1521 1528 1532 1536 1541 1545 1549 1551 1552 1552 1551 1550 1551 1551 1552 1553 1554 1555 1555 1555 1555 1555 1554 1553 1553 1552 1552 1551 1550 1549
1457 1470 1508 1525 1523 1502 1466 1489 1473 1452 1455 1465 1471 1475 1482 1491 1496 1502 1508 1515 1518 1524 1527 1532 1539 1544 1547 1549 1549 1549 1549 1549 1549 1549 1549 1551 1552 1553 1552 1551 1551 1551 1551 1551 1551 1550 1550 1548 1547
1454 1471 1456 1483 1475 1499 1477 1452 1444 1446 1455 1462 1466 1471 1476 1483 1492 1501 1504 1509 1513 1517 1521 1525 1531 1537 1541 1545 1546 1547 1547 1546 1546 1547 1547 1548 1548 1549 1549 1549 1549 1549 1548 1548 1548 1547 1546 1546 1544
1441 1440 1477 1486 1509 1517 1487 1475 1478 1459 1456 1458 1464 1468 1471 1476 1487 1489 1499 1504 1508 1512 1515 1520 1526 1529 1533 1537 1542 1543 1544 1544 1544 1544 1544 1545 1545 1546 1546 1546 1545 1545 1545 1545 1544 1543 1542 1542 1540
1443 1453 1455 1467 1482 1509 1508 1492 1452 1454 1454 1456 1457 1461 1467 1475 1483 1486 1497 1503 1502 1505 1510 1514 1519 1523 1527 1530 1535 1539 1540 1541 1541 1541 1542 1542 1542 1542 1542 1542 1542 1542 1541 1541 1540 1539 1537 1537 1536
1425 1440 1451 1487 1483 1477 1488 1484 1436 1442 1446 1451 1456 1461 1466 1471 1477 1480 1484 1492 1498 1498 1504 1507 1512 1516 1522 1526 1528 1533 1537 1539 1539 1538 1539 1540 1539 1539 1539 1539 1539 1539 1538 1537 1535 1534 1533 1532 1531
Wind_Speed
1 1 2 1 2 2 10 17 12 16 11 12 25 5 7 5 2 10 22 14 18 22 23 23 24 24 25 25 24 23 24 25 26 24 22 21 20 18 16 16 15 13 11 10 9 10 10 10 12
7 4 9 5 2 9 5 9 12 17 24 30 17 24 27 19 27 26 25 16 15 22 23 24 23 24 24 23 23 25 25 24 23 21 19 17 16 15 14 13 12 9 9 9 9 9 10 10 10
11 1 5 4 3 9 6 8 18 31 36 31 20 25 11 23 19 23 25 22 19 22 22 23 22 23 22 22 22 24 24 22 20 20 18 17 16 15 13 11 8 8 8 8 8 9 10 10 9
16 5 5 2 10 15 12 16 25 27 32 29 25 12 16 25 23 32 27 23 19 19 21 22 22 20 20 21 21 21 20 19 18 16 16 15 15 13 11 9 8 7 7 7 7 7 8 8 8
18 8 4 7 15 13 11 22 27 19 26 32 35 18 18 24 33 28 24 20 21 20 20 20 19 18 18 18 19 18 17 15 14 14 14 13 12 10 8 7 6 5 5 5 5 6 7 8 8
16 7 3 9 9 5 13 32 32 28 27 32 35 29 21 27 28 25 24 20 19 22 21 20 18 17 17 17 17 16 15 14 14 12 10 10 8 6 5 5 4 4 5 6 8 10 9 8 9
13 4 4 6 5 5 4 36 26 22 25 20 33 19 26 29 25 28 23 19 16 18 20 19 17 16 14 14 15 15 13 12 11 10 10 9 7 4 3 1 2 4 7 9 11 11 9 8 7
13 5 4 16 6 5 4 23 37 28 24 30 33 14 24 32 29 33 24 21 15 13 17 17 15 14 14 14 12 13 12 10 9 8 9 7 4 3 1 5 4 6 7 8 7 8 8 7 7
7 2 9 14 3 3 24 17 21 34 34 30 9 29 30 36 37 34 28 22 17 13 13 13 13 13 12 12 12 11 10 10 9 8 7 4 1 3 3 8 6 8 7 8 4 7 8 10 8
7 4 13 16 14 17 19 16 10 12 26 29 31 29 35 35 31 28 26 25 22 16 15 13 10 9 11 11 7 6 6 6 6 5 5 4 2 3 4 5 11 6 6 9 7 8 9 7 7
18 9 21 17 20 26 13 12 10 11 13 34 35 33 31 33 28 25 23 19 14 13 18 15 11 9 11 10 4 8 5 6 4 3 4 4 3 6 7 4 5 6 8 9 10 13 10 6 6
9 24 24 21 31 16 8 15 9 17 6 36 35 32 26 27 31 24 15 22 14 15 18 11 14 14 8 6 6 4 2 2 3 1 0 3 6 6 6 6 6 5 5 7 10 12 14 11 10
8 12 29 36 31 29 26 15 7 11 21 32 32 28 25 21 19 22 21 20 16 13 21 11 16 9 9 9 6 8 6 8 4 4 2 5 3 6 7 9 10 9 12 13 12 13 10 12 13
6 13 27 27 29 29 25 11 13 10 21 30 29 26 24 22 22 18 19 18 16 13 20 10 10 9 10 13 14 15 9 9 5 6 7 6 9 13 16 14 14 11 8 12 12 15 18 14 10
12 8 13 19 29 22 34 14 11 25 26 25 26 25 24 23 22 20 18 19 17 18 12 9 11 11 9 14 14 15 13 14 9 8 10 11 13 15 16 16 14 15 15 18 17 16 16 16 14
7 8 6 10 15 19 18 14 16 26 25 25 25 27 25 23 24 21 17 18 18 16 17 13 11 8 8 9 11 14 16 13 11 10 13 14 16 14 15 16 17 16 17 17 18 17 17 17 18
6 6 14 6 8 6 7 16 24 31 29 27 28 27 27 24 23 21 20 18 16 16 15 15 13 10 11 9 7 9 11 13 17 14 13 14 15 15 17 18 20 20 18 17 16 16 16 19 20
8 6 16 12 9 7 9 10 19 31 30 28 27 29 27 26 27 22 25 22 21 17 17 14 12 11 9 9 6 6 9 9 11 14 13 13 15 18 18 19 16 13 13 12 13 15 15 18 21
11 10 10 7 9 8 8 15 17 25 24 21 27 30 30 26 31 24 22 21 22 18 13 16 11 12 13 11 8 8 8 8 8 8 10 12 10 12 11 9 10 11 12 11 12 15 18 22 24
10 12 12 14 17 9 9 12 12 11 6 30 27 28 30 29 35 26 22 22 23 22 19 16 16 15 14 11 6 5 4 4 2 5 6 8 8 7 5 11 13 16 15 18 18 18 19 23 21
11 6 13 13 18 13 11 3 4 13 25 28 34 31 30 32 32 31 26 24 28 25 20 14 16 13 13 11 7 4 4 3 5 6 5 7 6 10 13 16 18 15 15 12 12 16 17 19 17
7 5 5 4 17 9 12 6 7 20 15 18 30 34 32 38 35 31 29 26 30 27 20 15 17 14 11 8 7 6 6 6 5 8 9 8 11 10 8 10 6 7 13 13 11 13 17 15 16
7 8 6 8 5 5 11 5 9 18 13 10 19 33 35 43 40 37 32 29 30 27 23 20 17 15 12 11 13 12 12 11 11 9 11 13 7 6 7 7 8 14 18 12 12 13 15 14 14
6 4 5 7 1 2 7 8 6 15 19 17 20 31 38 43 44 41 38 35 35 32 27 24 22 20 17 15 11 11 11 13 17 16 16 11 3 6 5 9 13 17 12 8 10 10 12 10 10
5 4 2 3 1 7 8 7 8 20 19 21 16 31 31 45 47 47 44 42 40 39 31 27 26 24 18 15 10 3 1 2 5 6 6 6 6 5 8 11 15 9 9 9 9 11 10 10 11
8 9 6 7 4 10 12 8 6 22 31 32 34 35 33 34 42 49 47 47 45 43 38 32 27 24 21 16 10 6 4 7 6 5 8 7 8 9 10 11 12 10 9 8 11 14 11 11 11
10 6 10 3 4 3 4 6 6 13 15 22 28 28 36 39 27 41 50 51 47 47 42 35 30 27 24 19 15 8 5 6 10 9 10 12 11 8 9 10 13 15 10 9 11 14 13 14 14
11 8 4 3 3 6 6 2 3 6 10 10 14 23 34 38 35 47 48 49 48 48 44 38 33 29 26 22 17 10 4 2 4 7 6 6 6 9 9 10 11 11 12 11 12 16 15 15 16
2 5 4 7 6 6 2 3 4 9 10 10 10 26 34 36 41 28 34 40 51 51 46 41 35 31 28 25 18 12 8 8 8 6 5 5 6 8 10 12 12 13 14 14 14 18 19 16 16
9 9 10 5 6 2 5 5 12 11 9 16 14 18 16 13 33 41 42 45 48 52 47 42 38 33 30 26 20 16 15 13 12 9 9 7 8 9 10 10 11 15 17 16 15 17 16 17 17
Wind_Direction
23 87 322 237 1 202 102 93 127 127 121 169 137 197 101 96 94 125 141 131 122 122 121 121 122 121 123 126 126 123 120 120 118 120 120 122 124 119 115 115 115 105 101 93 81 70 65 57 56
53 61 260 287 220 81 79 84 86 116 138 162 125 102 72 73 101 123 128 130 133 122 123 124 124 124 123 125 126 124 121 120 118 118 119 127 131 127 121 114 110 101 97 88 77 65 61 51 50
17 321 174 188 136 99 96 108 80 113 138 138 123 100 89 118 116 127 124 127 126 126 128 125 124 123 123 125 128 130 124 119 116 109 111 113 116 111 111 109 99 90 79 67 59 51 48 38 32
16 59 287 150 108 105 102 94 98 100 101 108 100 71 81 116 117 131 139 139 136 131 129 127 124 124 126 128 132 133 133 126 116 113 109 110 109 106 101 94 87 78 66 51 43 50 38 27 17
29 20 313 65 111 119 126 113 109 103 94 96 105 107 100 123 132 137 142 143 136 136 138 135 134 132 131 133 134 133 134 136 128 116 115 113 106 104 99 88 74 56 37 32 26 13 7 2 7
26 20 16 87 77 54 100 102 100 99 101 104 110 110 119 126 137 134 135 128 136 136 137 134 135 136 136 139 140 140 136 131 128 117 110 116 114 105 85 61 36 10 9 6 354 349 352 356 357
85 327 296 80 85 70 87 108 109 117 124 113 123 124 139 140 131 137 127 132 132 135 140 138 134 134 135 136 142 145 142 137 134 119 117 120 118 118 124 63 10 9 347 342 344 348 0 0 6
156 143 316 4 338 99 93 113 127 128 122 130 128 138 146 154 137 138 141 141 131 128 141 145 143 141 142 144 147 154 160 155 145 131 119 118 139 157 181 19 356 348 343 336 349 1 14 15 6
174 115 111 186 184 82 64 121 127 129 136 152 170 140 138 148 141 141 145 138 135 135 134 138 141 145 148 150 152 155 161 159 156 138 125 106 204 284 314 4 342 331 349 349 6 357 8 29 31
142 282 153 178 193 111 113 87 66 130 138 120 127 134 142 141 145 146 147 149 149 151 149 146 130 133 130 137 132 150 162 162 159 149 136 134 252 277 334 359 331 330 10 356 355 349 352 8 16
178 222 105 110 83 105 109 105 118 91 137 143 137 146 146 151 153 144 152 158 163 163 154 144 146 163 166 156 139 134 129 145 107 134 111 184 247 298 279 326 334 334 347 332 331 330 319 317 315
90 109 117 122 111 105 97 134 173 144 129 138 142 151 156 153 159 161 156 168 155 156 161 157 150 167 154 165 140 110 219 229 12 285 286 259 247 258 264 275 282 281 307 303 308 307 295 286 288
97 105 110 120 130 131 133 146 160 144 123 136 145 154 158 162 160 156 149 153 148 164 175 165 162 165 171 171 206 215 257 228 250 262 252 250 251 277 278 273 278 265 256 272 286 297 319 304 292
106 135 127 123 115 111 105 111 108 165 135 138 148 158 165 164 168 163 155 156 168 159 170 181 173 206 221 211 202 198 190 212 226 240 270 272 273 269 285 278 282 279 274 267 282 294 300 307 318
192 120 118 106 120 121 117 126 116 137 138 145 155 165 172 171 173 172 178 175 173 174 189 194 202 222 244 227 224 219 209 214 225 272 269 287 286 275 277 288 283 284 284 288 290 292 297 301 304
153 129 117 136 117 144 120 140 142 148 153 161 169 176 179 177 178 173 185 183 180 183 193 204 215 233 251 229 228 238 229 231 216 231 251 270 277 275 281 290 295 284 287 286 289 294 291 292 295
164 189 129 135 149 139 106 150 158 169 170 173 181 178 171 172 175 174 180 180 184 189 190 203 230 225 246 250 255 234 234 227 226 233 247 263 267 256 261 284 293 296 297 297 304 302 300 298 295
190 214 149 148 193 144 133 155 165 178 175 182 182 167 171 178 180 183 185 191 191 190 203 206 216 221 237 246 258 245 232 243 241 241 258 264 269 271 281 288 289 295 298 305 309 304 304 309 310
203 179 117 254 184 138 177 155 172 178 171 178 169 169 171 177 180 179 177 189 188 185 191 193 200 198 219 244 258 253 256 261 259 269 267 267 268 275 287 313 314 323 313 312 318 316 318 310 311
240 159 182 217 170 125 173 161 166 71 260 177 179 178 180 179 172 175 177 170 179 178 181 186 189 212 221 239 224 249 271 261 300 304 282 259 271 301 321 310 299 297 295 284 291 289 301 301 312
241 191 201 175 178 166 135 112 100 187 225 201 181 183 191 177 170 176 175 178 184 183 182 191 192 193 201 204 215 225 202 203 271 272 251 257 256 270 285 296 295 293 294 304 294 291 300 309 312
243 262 285 150 155 180 177 194 188 200 238 199 176 181 188 172 171 171 172 180 185 184 189 205 194 192 186 187 205 221 222 238 242 233 247 261 298 313 339 337 314 316 323 310 289 302 311 316 316
218 255 217 259 212 190 193 111 221 191 238 189 181 181 183 179 179 177 183 188 190 190 196 206 201 194 189 189 216 221 235 218 220 218 248 273 281 317 337 329 308 314 318 310 311 316 314 321 325
216 233 296 246 177 0 227 160 173 182 201 202 171 180 185 177 183 184 186 189 195 196 199 202 205 201 202 211 210 223 233 233 234 245 262 266 293 293 267 270 283 305 314 323 329 330 336 338 334
182 138 281 352 324 231 252 259 201 194 188 189 181 177 192 182 181 186 186 188 194 190 195 200 208 200 204 202 193 169 226 202 189 199 210 218 230 249 267 283 296 308 337 341 342 344 339 340 338
207 161 158 203 197 240 246 244 227 187 190 191 190 197 205 187 184 185 189 189 192 190 192 202 205 202 203 204 197 194 223 207 185 203 230 245 271 249 271 289 304 320 337 341 325 326 326 327 314
227 174 204 216 250 318 254 164 20 169 186 187 191 198 206 207 193 184 195 191 191 190 196 205 201 202 202 203 208 208 195 179 210 223 236 249 258 257 258 272 287 297 302 309 306 299 295 297 295
160 166 241 345 229 285 265 308 222 137 138 148 191 190 209 210 198 192 186 189 193 195 199 202 207 204 202 204 212 222 227 223 216 227 231 241 253 258 268 286 298 294 299 312 303 301 300 300 287
143 177 182 175 157 200 266 256 213 138 148 156 166 173 211 206 187 157 171 205 199 197 199 202 207 207 205 207 207 220 216 243 253 246 258 268 285 287 289 294 300 304 306 307 303 300 302 306 294
197 185 172 132 275 223 157 248 160 158 147 126 122 142 135 130 197 197 200 195 200 195 199 204 208 209 212 211 204 213 220 239 238 248 261 264 272 283 293 299 304 306 310 309 302 306 306 294 300